World > North America > United States > Nebraska

Polk County, Nebraska Regional Weather

Lat: 41.21N, Lon: 97.59W
Wx Zone: NEZ049Web Search

Helpful Tip: You can add this page to Bookmarks by pressing the Ctrl key & d key at the same time. Mac users press command & d.

Feedback


°F Click to change Polk County hourly weather to Imperial units.Click to change Polk County hourly weather to Metric units. °C
Polk County Weather Map
UTC Time: 4/13/2021, 20:08
Your Time:

Polk County, NE Regional Weather

Expires:202104132100;;502606
ASUS43 KOAX 132003
RWRNE 

WEATHER ROUNDUP FOR NEBRASKA
NATIONAL WEATHER SERVICE OMAHA NE
300 PM CDT TUE APR 13 2021

NOTES: SATELLITE DATA IS BEING USED TO AUGMENT CLOUD COVER ABOVE
       12000 FEET.
       "FAIR" INDICATES FEW OR NO CLOUDS BELOW 12,000 FEET WITH NO
       SIGNIFICANT WEATHER AND/OR OBSTRUCTIONS TO VISIBILITY.

   

NEZ041-046>049-061>064-073>077-083>087-132100-
SOUTH CENTRAL NEBRASKA
  
CITY           SKY/WX    TMP DP  RH WIND       PRES   REMARKS
GRAND ISLAND   SUNNY     53  23  31 W14G28    30.21F                  
AURORA         SUNNY     53  23  31 W12G23    30.20F                  
HASTINGS       SUNNY     52  24  33 NW13G23   30.21F                  
HEBRON         SUNNY     55  27  33 NW10G17   30.22F                  
HOLDREGE       MOSUNNY   52  22  31 W10G23    30.20F                  
KEARNEY        SUNNY     52  24  33 NW14G20   30.20F                  
YORK           SUNNY     52  27  37 NW21G26   30.19F                  
$$
 

SKY/WX - Weather  TMP - Temperature  DP - Dew Point  RH - Relative Humidity
WIND - Wind Direction/Speed PRES - Barometric Pressure VSB - Visibility
WCI - Wind Chill Index E13G22 Wind - East Wind 13 mph/Gusts of 22 mph